Вернуться в каталог

ICEYE-X49

АктивенНаукаVLEO
NORAD 62384·PAYLOAD·🇫🇮 Finland

Запущен Dec 21, 2024 с Vandenberg Space Force Base

Loading…

Ближайшие Пролёты (ближайшие 24 часа)

TLE

СвежийSource: Space-Track

Эпоха: Sep 14, 2026, 22:28 UTC

1 62384U 24247H   26257.93644201  .00004846  00000-0  28043-3 0  9995
2 62384  44.9961 237.9380 0000671 286.4491  73.6313 15.13462307 95771

Отслеживайте ICEYE-X49 в реальном времени с AllMySat

Download on the App Store